Date String (YYYY-MM-DD hh:mm:ss) UTC,Instrument flags,Ambient pressure (hPa),Sample flow (lpm),Bypass flow (lpm),Sample temperature (°C),Ambient temperature (°C),ASC tube jacket temperature (°C),LED temperature (°C),Box temperature (°C),Sample RH (%),Span deviation,Mass concentration (μg/m³),Mass concentration (μg/m³),Mass concentration (μg/m³)
DateTimeUTC,F1_M11,P_M11,Q1_M11,Q2_M11,T1_M11,T2_M11,T3_M11,T4_M11,T5_M11,U1_M11,ZSPAN_M11,X2_M11,X0_M11,X1_M11
2022-03-28 00:00:00,,0821.1,5.00,0.00,29.3,28.5,00.0,38.2,31.1,13.4,0001.6,0024.03,0037.53,0022.40
2022-03-28 00:01:00,,0821.1,5.02,0.00,29.3,28.5,00.0,38.2,31.2,13.5,0001.5,0023.83,0036.20,0022.24
2022-03-28 00:02:00,,0821.1,4.99,0.00,29.3,28.5,00.0,38.2,31.2,13.6,0001.4,0023.76,0035.51,0022.10
2022-03-28 00:03:00,,0821.1,5.00,0.00,29.3,28.5,00.0,38.2,31.2,13.4,0001.7,0023.68,0035.90,0021.99
2022-03-28 00:04:00,,0821.1,5.00,0.00,29.4,28.5,00.0,38.2,31.2,13.4,0001.8,0023.60,0037.06,0021.90
2022-03-28 00:05:00,,0821.1,5.00,0.00,29.4,28.6,00.0,38.2,31.2,13.5,0001.8,0023.53,0037.71,0021.78
2022-03-28 00:06:00,,0821.1,5.02,0.00,29.4,28.6,00.0,38.2,31.2,13.7,0002.1,0023.42,0038.33,0021.66
2022-03-28 00:07:00,,0821.1,4.99,0.00,29.4,28.6,00.0,38.2,31.2,13.5,0002.8,0023.38,0039.35,0021.55
2022-03-28 00:08:00,,0821.1,4.99,0.00,29.4,28.6,00.0,38.2,31.2,13.6,0003.0,0023.42,0040.76,0021.49
2022-03-28 00:09:00,,0821.1,5.02,0.00,29.4,28.6,00.0,38.3,31.2,13.4,0002.8,0023.32,0041.31,0021.37
2022-03-28 00:10:00,,0821.1,5.00,0.00,29.4,28.6,00.0,38.3,31.2,13.5,0002.5,0023.18,0041.50,0021.24
2022-03-28 00:11:00,,0821.2,5.01,0.00,29.4,28.6,00.0,38.3,31.2,13.5,0002.5,0023.09,0041.05,0021.18
2022-03-28 00:12:00,,0821.2,4.99,0.00,29.4,28.6,00.0,38.3,31.2,13.3,0002.7,0023.05,0040.78,0021.16
2022-03-28 00:13:00,,0821.1,4.99,0.00,29.4,28.6,00.0,38.3,31.2,13.5,0003.1,0022.98,0040.30,0021.14
2022-03-28 00:14:00,,0821.1,5.00,0.00,29.5,28.6,00.0,38.3,31.2,13.4,0003.3,0022.88,0038.97,0021.09
2022-03-28 00:15:00,,0821.1,4.99,0.00,29.5,28.6,00.0,38.3,31.2,13.4,0003.4,0022.88,0037.86,0021.05
2022-03-28 00:16:00,,0821.1,5.01,0.00,29.5,28.6,00.0,38.3,31.2,13.3,0003.0,0022.89,0038.32,0021.03
2022-03-28 00:17:00,,0821.1,4.98,0.00,29.5,28.6,00.0,38.3,31.3,13.3,0002.9,0022.94,0038.45,0021.04
2022-03-28 00:18:00,,0821.1,5.00,0.00,29.5,28.6,00.0,38.4,31.3,13.3,0002.3,0022.93,0038.05,0021.03
2022-03-28 00:19:00,,0821.1,5.00,0.00,29.5,28.6,00.0,38.4,31.3,13.3,0002.5,0022.71,0037.49,0020.95
2022-03-28 00:20:00,,0821.1,4.99,0.00,29.5,28.6,00.0,38.4,31.3,13.3,0002.6,0022.61,0036.69,0020.88
2022-03-28 00:21:00,,0821.1,5.01,0.00,29.5,28.6,00.0,38.4,31.3,13.1,0002.8,0022.51,0035.98,0020.80
2022-03-28 00:22:00,,0821.1,4.99,0.00,29.5,28.6,00.0,38.4,31.3,13.2,0002.8,0022.44,0036.88,0020.67
2022-03-28 00:23:00,,0821.2,5.01,0.00,29.5,28.6,00.0,38.4,31.3,13.1,0002.9,0022.32,0037.26,0020.51
2022-03-28 00:24:00,,0821.1,4.98,0.00,29.5,28.6,00.0,38.4,31.3,13.2,0002.4,0022.19,0037.75,0020.36
2022-03-28 00:25:00,,0821.1,5.00,0.00,29.5,28.6,00.0,38.4,31.3,13.3,0001.8,0022.07,0039.80,0020.24
2022-03-28 00:26:00,,0821.2,5.01,0.00,29.5,28.6,00.0,38.4,31.3,13.3,0001.9,0021.97,0041.72,0020.16
2022-03-28 00:27:00,,0821.1,4.99,0.00,29.5,28.6,00.0,38.4,31.3,13.3,0002.4,0021.85,0043.10,0020.06
2022-03-28 00:28:00,,0821.1,5.01,0.00,29.5,28.6,00.0,38.4,31.3,13.3,0002.4,0021.69,0042.46,0019.92
2022-03-28 00:29:00,,0821.1,5.00,0.00,29.5,28.6,00.0,38.4,31.3,13.3,0002.5,0021.50,0041.72,0019.78
2022-03-28 00:30:00,,0821.2,4.98,0.00,29.5,28.7,00.0,38.4,31.3,13.2,0002.6,0021.45,0041.67,0019.69
2022-03-28 00:31:00,,0821.1,5.02,0.00,29.5,28.7,00.0,38.4,31.3,13.1,0002.9,0021.48,0042.08,0019.64
2022-03-28 00:32:00,,0821.2,5.00,0.00,29.5,28.6,00.0,38.4,31.3,13.1,0002.8,0021.49,0042.75,0019.65
2022-03-28 00:33:00,,0821.2,5.01,0.00,29.5,28.6,00.0,38.4,31.3,13.2,0003.2,0021.52,0042.96,0019.66
2022-03-28 00:34:00,,0821.1,4.99,0.00,29.6,28.7,00.0,38.4,31.3,13.1,0003.0,0021.48,0043.68,0019.69
2022-03-28 00:35:00,,0821.1,5.01,0.00,29.6,28.7,00.0,38.5,31.3,13.1,0002.5,0021.53,0044.72,0019.70
2022-03-28 00:36:00,,0821.1,4.99,0.00,29.6,28.7,00.0,38.5,31.3,13.3,0002.5,0021.52,0042.38,0019.69
2022-03-28 00:37:00,,0821.1,5.01,0.00,29.6,28.7,00.0,38.5,31.4,13.3,0002.9,0021.49,0040.84,0019.61
2022-03-28 00:38:00,,0821.1,4.99,0.00,29.6,28.8,00.0,38.5,31.4,13.2,0002.3,0021.36,0039.09,0019.51
2022-03-28 00:39:00,,0821.2,5.00,0.00,29.6,28.8,00.0,38.5,31.4,13.3,0002.4,0021.27,0038.81,0019.45
2022-03-28 00:40:00,,0821.1,5.01,0.00,29.6,28.8,00.0,38.5,31.4,13.2,0002.3,0021.22,0039.39,0019.42
2022-03-28 00:41:00,,0821.1,4.98,0.00,29.6,28.7,00.0,38.5,31.4,13.1,0002.2,0021.14,0039.23,0019.37
2022-03-28 00:42:00,,0821.1,5.02,0.00,29.6,28.8,00.0,38.5,31.4,13.0,0002.2,0021.05,0038.25,0019.31
2022-03-28 00:43:00,,0821.1,4.99,0.00,29.7,28.8,00.0,38.5,31.4,13.1,0002.3,0020.96,0039.00,0019.20
2022-03-28 00:44:00,,0821.1,5.00,0.00,29.7,28.8,00.0,38.5,31.4,13.2,0002.0,0020.82,0037.76,0019.10
2022-03-28 00:45:00,,0821.1,4.99,0.00,29.7,28.8,00.0,38.5,31.5,13.1,0002.1,0020.75,0037.16,0018.98
2022-03-28 00:46:00,,0821.1,5.02,0.00,29.7,28.8,00.0,38.6,31.5,13.1,0002.5,0020.60,0036.25,0018.83
2022-03-28 00:47:00,,0821.1,4.99,0.00,29.7,28.8,00.0,38.6,31.5,13.1,0002.5,0020.49,0036.54,0018.71
2022-03-28 00:48:00,,0821.2,5.00,0.00,29.7,28.8,00.0,38.6,31.5,13.1,0001.7,0020.44,0037.97,0018.62
2022-03-28 00:49:00,,0821.2,5.01,0.00,29.7,28.8,00.0,38.6,31.5,13.0,0001.8,0020.42,0038.49,0018.56
2022-03-28 00:50:00,,0821.2,4.99,0.00,29.7,28.8,00.0,38.6,31.5,13.0,0002.2,0020.33,0038.28,0018.48
2022-03-28 00:51:00,,0821.2,4.99,0.00,29.7,28.8,00.0,38.6,31.5,13.0,0002.4,0020.23,0038.13,0018.39
2022-03-28 00:52:00,,0821.3,5.02,0.00,29.7,28.8,00.0,38.6,31.5,13.0,0002.9,0020.18,0038.82,0018.32
2022-03-28 00:53:00,,0821.3,4.99,0.00,29.7,28.8,00.0,38.6,31.5,13.0,0003.1,0020.06,0039.23,0018.21
2022-03-28 00:54:00,,0821.3,4.99,0.00,29.7,28.8,00.0,38.6,31.5,13.0,0003.5,0020.06,0037.92,0018.18
2022-03-28 00:55:00,,0821.4,5.02,0.00,29.7,28.8,00.0,38.6,31.5,13.0,0003.9,0020.00,0037.68,0018.15
2022-03-28 00:56:00,,0821.4,4.99,0.00,29.7,28.8,00.0,38.6,31.5,13.0,0004.0,0019.94,0037.68,0018.11
2022-03-28 00:57:00,,0821.3,5.00,0.00,29.7,28.8,00.0,38.6,31.4,13.0,0004.0,0019.90,0037.98,0018.12
2022-03-28 00:58:00,,0821.3,5.01,0.00,29.7,28.8,00.0,38.6,31.4,12.9,0004.4,0019.93,0037.75,0018.12
2022-03-28 00:59:00,,0821.3,4.99,0.00,29.7,28.8,00.0,38.6,31.4,12.9,0004.6,0019.88,0035.68,0018.11
